Regional Weather Roundup
Issued by NWS Wakefield, VA

Home | Current Version | Previous Version | Graphics & Text | Print | Product List | Glossary On
Versions: 1 2 3 4 5 6 7 8 9 10 11 12 13 14 15 16 17 18 19 20 21 22 23 24 25 26 27 28 29 30 31 32 33 34 35 36 37 38 39 40 41 42 43 44 45 46 47 48 49 50
449
ASUS41 KAKQ 240315
RWRAKQ

REGIONAL WEATHER ROUNDUP
NATIONAL WEATHER SERVICE WAKEFIELD VA
1100 PM EDT MON MAY 23 2016

Note: "fair" indicates few or no clouds below 12,000 feet with no
significant weather and/or obstructions to visibility. * = Denotes
station may not report precipitation (e.g., rain,snow,etc.),
thunder or fog.

VAZ042-051-052>054-056-240400-
NORTHERN VIRGINIA

CITY           SKY/WX    TMP DP  RH WIND       PRES   REMARKS
WASH NATIONAL  CLOUDY    61  57  87 W3        29.98S
DULLES         MOCLDY    57  55  93 CALM      29.98S
FORT BELVOIR   MOCLDY    59  57  94 W1        29.98R
QUANTICO       MOCLDY    60  57  89 NE3       30.00R
FREDERICKSBRG* FAIR      59  59 100 NW3       29.98R
STAFFORD*      FAIR      57  55  94 CALM      30.02S
WARRENTON      FAIR      58  54  85 CALM      29.98F
CULPEPER*      FAIR      58  57  95 CALM      30.01S
MANASSAS*      FAIR      57  57 100 S3        29.99R
LEESBURG*      FAIR      61  59  94 SW5       29.98F
WINCHESTER     LGT RAIN  59  54  82 SW7       29.98F
FRONT ROYAL*   CLOUDY    57  54  88 W6        30.00F
LURAY*         CLOUDY    61  54  77 NE5       30.03R
$$

VAZ048-049-060>072-079>083-240400-
CENTRAL AND SOUTH CENTRAL VIRGINIA

CITY           SKY/WX    TMP DP  RH WIND       PRES   REMARKS
RICHMOND       CLOUDY    60  56  86 NW3       29.97S
CHESTERFIELD*  CLOUDY    61  48  63 W9        29.99F
PETERSBURG*    CLOUDY    62  56  80 W9        29.99F
HANOVER        FAIR      58  55  90 W3        29.99R
TAPPAHANNOCK*  FAIR      57  57 100 W3        29.97S
QUINTON*       CLOUDY    60  55  82 CALM      29.96R
CHARLOTTSVILLE MOCLDY    58  55  90 CALM      30.01R
GORDONSVILLE*  CLOUDY    56  56 100 CALM      30.00F
ORANGE*        CLOUDY    57  57 100 CALM      30.02S
LOUISA*        CLOUDY    61  59  94 SW3       29.99F
BUMPASS*       CLOUDY    57  57  98 W3        29.99S
FARMVILLE*     MOCLDY    58  58 100 CALM      30.00F
CREWE*         MOCLDY    59  57  95 CALM      30.01R
FORT PICKETT*  NOT AVBL
CHASE CITY*    FAIR      55  53  94 CALM      30.03R
CLARKSVILLE*   FAIR      55  54  94 CALM      30.02R
SOUTH HILL*    FAIR      58  52  80 W3        30.07R
LAWRENCEVILLE* FAIR      58  54  87 W5        30.01R
EMPORIA*       FAIR      54  54 100 CALM      30.02R
$$

VAZ088>098-240400-
SOUTHEAST VIRGINIA

CITY           SKY/WX    TMP DP  RH WIND       PRES   REMARKS
NORFOLK        FAIR      58  55  90 CALM      29.96S
VIRGINIA BEACH MOCLDY    60  53  77 SW5       29.95S
NORFOLK NAVAL  MOCLDY    59  55  87 CALM      29.97F
WEST POINT*    FAIR      58  57  96 CALM      29.98S
SALUDA*        FAIR      58  57  97 CALM      29.95F
NEWPORT NEWS   MOCLDY    61  56  83 W5        29.97R
LANGLEY AFB    LGT RAIN  60  56  87 NW6       29.96R
FORT EUSTIS    FAIR      61  53  74 NW3       29.95S
WILLIAMSBURG*  FAIR      61  59  94 CALM      29.97F
HR EXEC AP*    MOCLDY    57  55  94 CALM      30.00R
FRANKLIN*      MOCLDY    58  55  88 CALM      29.98S
US460-WAKEFLD  FAIR      59  56  89 CALM      29.97S
$$

VAZ020-022-025-037-045-240400-
WEST CENTRAL AND SOUTHWEST VIRGINIA

CITY           SKY/WX    TMP DP  RH WIND       PRES   REMARKS
STAUNTON*      MOCLDY    56  56 100 CALM      30.05R
WAYNESBORO*    FAIR      55  52  91 CALM      30.04R
HOT SPRINGS VA FAIR      53  49  86 W7        30.09R
LYNCHBURG      MOCLDY    56  54  93 CALM      30.04R
DANVILLE       FAIR      52  50  93 SW5       30.04R
SOUTH BOSTON*  FAIR      53  52  95 CALM      30.03S
MARTINSVILLE   FAIR      48  48  99 CALM      30.08R FOG
ROANOKE        FAIR      56  54  93 N3        30.07R
BLACKSBURG     MOCLDY    54  53  96 CALM      30.12R
DUBLIN*        MOCLDY    54  52  92 SW6       30.11R
MARION*        FAIR      52  49  92 CALM      30.14R
HILLSVILLE*    FAIR      51  49  93 CALM      30.10R
RICHLANDS*     FAIR      56  33  41 CALM      30.12R
WISE*          FAIR      55  43  62 CALM      30.13R
ABINGDON*      FAIR      55  50  84 CALM      30.11R
$$

MDZ021>025-VAZ099-100-240400-
SOUTHERN MARYLAND AND THE DELMARVA PENINSULA

CITY           SKY/WX    TMP DP  RH WIND       PRES   REMARKS
PATUXENT RIVER CLOUDY    59  55  87 SW6       29.94S
BAY BRIDGE APT CLOUDY    61  55  82 NW9       29.94R
LEONARDTOWN    PTCLDY    55  54  94 W3        29.96S
DOVER          CLOUDY    59  52  78 SE8       29.94R
GEORGETOWN     CLOUDY    59  55  87 CALM      29.95S
EASTON         PTCLDY    60  60 100 CALM      29.98R
CAMBRIDGE        N/A     57  55  94 SE3       29.93S
SALISBURY      CLOUDY    57  54  89 CALM      29.94S
OCEAN CITY     MOCLDY    56  53  90 CALM      29.95R
WALLOPS ISLAND CLOUDY    59  54  83 W6        29.94F
ACCOMACK*      CLOUDY    57  52  82 CALM      29.95F
$$

NCZ012>017-030>032-240400-
NORTH CENTRAL AND EASTERN NORTH CAROLINA

CITY           SKY/WX    TMP DP  RH WIND       PRES   REMARKS
ROANOKE RAPIDS FAIR      52  52 100 SW5       30.01R
RALEIGH        PTCLDY    54  52  93 CALM      30.04R
ELIZABETH CITY CLOUDY    57  54  89 CALM      29.98R
AHOSKIE*       MOCLDY    55  54  94 CALM      30.00R
EDENTON*       PTCLDY   N/A N/A N/A W5        30.00R
CURRITUCK*     CLOUDY    57  55  91 CALM      29.98S
KILL DEVIL HLS PTCLDY    57  50  76 CALM      29.96R
MANTEO         PTCLDY    60  54  81 N6        29.98R
CAPE HATTERAS  CLEAR     61  50  67 VRB7      29.99R
TARBORO*       FAIR      52  51  98 CALM      30.02R
GOLDSBORO      CLEAR     55  55 100 CALM      30.02R
WASHINGTON     CLEAR     55  53  94 W3        30.01R
GREENVILLE     CLEAR     54  54 100 CALM      30.03S
NEW BERN       MOCLDY    58  55  90 CALM      30.03R
WILMINGTON     CLEAR     58  53  84 NW3       30.04R
$$

VAZ048-240400-
ELSEWHERE

CITY           SKY/WX    TMP DP  RH WIND       PRES   REMARKS
HARRISBURG PA  LGT RAIN  59  56  89 CALM      29.94R
BALTIMORE      CLOUDY    58  56  93 W8        29.94S
ANNAPOLIS      CLOUDY    59  56  89 W8        29.94R
ANDREWS AFB    MOCLDY    59  57  92 W13       29.95F
PHILADELPHIA   CLOUDY    61  55  81 S6        29.94R
HENDERSON NC   CLEAR     53  50  88 SW3       30.03R
GREENSBORO     CLEAR     58  52  80 CALM      30.05R
ROCKY MOUNT    CLEAR     53  52  96 CALM      30.02R
$$

VAZ100-240400-
MARINE

STATION/POSITION TIME  TEMP    WIND        PRES    WAVE   SWELL
                       AIR SEA DIR/SP/G            HT/PER HT/PER
                 (UTC) (F)     (DEG/KT/KT) (MB)    (FT/S) (FT/S)
BRANDYWINE LGT   0200   59     170/  7/  8 1014.0
CAPE MAY NJ      0200   58 64   50/  2/  5 1014.0
LEWES DE         0200   58 61  240/  5/  6 1013.3
15NM E FENWICK I 0250   56 55              1013.9R   5/ 8
OCEAN-CITY-INLET 0200   59 59  110/  1/  2 1013.1
WACHAPREAGUE VA  0200   58 64     CALM     1013.7
THOMAS POINT MD  0300   60 61  290/ 13/ 14 1014.9R
GOOSES REEF MD   0300   61 61  260/  8/ 10 1014.7F
COVE POINT MD    0200   59     320/  4/  5 1014.6
SOLOMONS ISLAND  0200   60 62  300/  3/  5   N/A
BISHOPS HEAD MD  0200   60 63  310/  4/  4 1013.8
PINEY POINT MD   0200          340/  6/  7   N/A
POTOMAC MD       0300   61 62  310/  4/  6 1013.3R   1
CAMBRIDGE MD     0200   60 63  230/  3/  4 1012.6
LEWISETTA VA     0200   62 63  330/  6/  8 1013.7
RAPPAHANNOCK LGT 0200          280/  7/  8 1014.8
STINGRAY PT      0300   63 63   20/  6/  6 1014.8R   0
YORK RVR RNG VA  0200   64     260/  8/ 10 1013.7
YORKTOWN VA      0200   63 65  300/ 12/ 14 1014.2
JAMESTOWN VA     0300   63 66  280/  2/  4   N/A
DOMINION TERM VA 0200   62     160/  1/  3 1014.6
KIPTOPEKE VA     0200      63   CALM  /  1   N/A
CHES BAY BRIDGE  0200   61 63  230/  3/  4 1014.4
CAPE HENRY VA    0200   60      CALM  /  2   N/A
CHESAPEAKE LGHT  0200   60      10/ 10/ 12 1014.9R
WILLOUBY STN VA  0200   61     250/  4/  5 1015.4
CAPE HENRY BUOY  0212      59                N/A     5/ 9   2/11
1ST LANDING BUOY 0300   61 63  220/  4/  6 1014.5R   3/ 5
CAPE CHARLES BUO 0226      60                N/A     5/ 8   5/ 8
OFFSHORE WE BUOY 0221      58                N/A     6/ 8   5/ 8
64NM E OF VA BCH 0250   57 69  340/ 16/ 19 1013.0R   7/ 9   5/ 9
DUCK PIER NC     0200   62 62  340/ 12/ 13 1013.5
44100 DUCK FRF   0224      57                N/A     6/10   2/11
44056 DUCK FRF   0211      62                N/A     5/ 8   2/11
OREGON INLET NC  0200   58 65  330/  7/ 10 1014.1
HATTERAS NC      0200   63 68  340/ 16/ 19 1014.2
DIAMOND SHLS NC  0250   63 66  330/ 12/ 16 1015.2R   4/ 9   3/ 9
CAPE LOOKOUT NC  030C1F1C2F2C3F3C4F4C5F5C6F6C7F7C8M1C9!



USA.gov is the U.S. government's official web portal to all federal, state and local government web resources and services.